When you browse on this site, cookies collect data to enhance your experience and personalize the content and advertising you see.
Visit our Privacy Policy to learn more. By continuing to use the site, you agree to this use of cookies and data.
  • In Hungary
  • List of Countries
  • For 7 days
  • Water Temperature
  • Weather Map
  • News
  • Weather Widgets
  • user-avatar
    Login

    Hourly Weather Tovuz

    Today, 3 April, Friday

    Time Temperature Precipitation Wind Pressure Humidity
    00:00 +10°C° 0 mm 1 mps 722 mmHg 67%
    01:00 +9°C° 0 mm 1 mps 722 mmHg 68%
    02:00 +9°C° 0 mm 1 mps 722 mmHg 69%
    03:00 +9°C° 0 mm 1 mps 722 mmHg 71%
    04:00 +8°C° 0 mm 1 mps 722 mmHg 72%
    05:00 +8°C° 0 mm 1 mps 722 mmHg 73%
    06:00 +8°C° 0 mm 1 mps 722 mmHg 74%
    07:00 +10°C° 0 mm 1 mps 722 mmHg 68%
    08:00 +11°C° 0 mm 1 mps 722 mmHg 63%
    09:00 +13°C° 0 mm 2 mps 723 mmHg 56%
    10:00 +14°C° 0 mm 2 mps 722 mmHg 54%
    11:00 +14°C° 0 mm 3 mps 722 mmHg 52%
    12:00 +17°C° 0 mm 4 mps 722 mmHg 49%
    13:00 +17°C° 0.1 mm 4 mps 722 mmHg 49%
    14:00 +17°C° 0.1 mm 4 mps 721 mmHg 50%
    15:00 +16°C° 0 mm 5 mps 721 mmHg 52%
    16:00 +15°C° 0 mm 4 mps 721 mmHg 56%
    17:00 +15°C° 0 mm 4 mps 721 mmHg 60%
    18:00 +14°C° 0 mm 3 mps 721 mmHg 64%
    19:00 +13°C° 0 mm 3 mps 722 mmHg 69%
    20:00 +13°C° 0 mm 2 mps 722 mmHg 75%
    21:00 +12°C° 0 mm 2 mps 723 mmHg 80%
    22:00 +10°C° 0 mm 2 mps 723 mmHg 84%
    23:00 +10°C° 0 mm 2 mps 723 mmHg 88%

    Tomorrow, 4 April, Saturday

    Time Temperature Precipitation Wind Pressure Humidity
    00:00 +9°C° 0 mm 2 mps 723 mmHg 91%
    01:00 +9°C° 0.3 mm 2 mps 723 mmHg 92%
    02:00 +9°C° 0.3 mm 2 mps 723 mmHg 92%
    03:00 +9°C° 0.3 mm 2 mps 723 mmHg 93%
    04:00 +10°C° 0.4 mm 1 mps 724 mmHg 93%
    05:00 +10°C° 0.4 mm 1 mps 724 mmHg 93%
    06:00 +9°C° 0.4 mm 0 mps 724 mmHg 93%
    07:00 +10°C° 1 mm 1 mps 724 mmHg 92%
    08:00 +10°C° 1 mm 1 mps 725 mmHg 92%
    09:00 +10°C° 1 mm 1 mps 725 mmHg 91%
    10:00 +10°C° 2.1 mm 1 mps 725 mmHg 91%
    11:00 +9°C° 2.1 mm 2 mps 725 mmHg 91%
    12:00 +9°C° 2.1 mm 2 mps 725 mmHg 90%
    13:00 +9°C° 1.5 mm 2 mps 725 mmHg 89%
    14:00 +9°C° 1.5 mm 2 mps 725 mmHg 88%
    15:00 +10°C° 1.5 mm 1 mps 725 mmHg 87%
    16:00 +10°C° 0.3 mm 1 mps 726 mmHg 88%
    17:00 +10°C° 0.3 mm 1 mps 726 mmHg 88%
    18:00 +11°C° 0.3 mm 1 mps 727 mmHg 88%
    19:00 +11°C° 0.2 mm 1 mps 728 mmHg 88%
    20:00 +11°C° 0.2 mm 1 mps 728 mmHg 88%
    21:00 +10°C° 0.2 mm 0 mps 729 mmHg 89%
    22:00 +11°C° 0.1 mm 1 mps 729 mmHg 88%
    23:00 +11°C° 0.1 mm 1 mps 730 mmHg 87%

    Day after tomorrow, 5 April, Sunday

    Time Temperature Precipitation Wind Pressure Humidity
    00:00 +11°C° 0.1 mm 1 mps 730 mmHg 87%
    01:00 +10°C° 0 mm 1 mps 730 mmHg 87%
    02:00 +9°C° 0 mm 1 mps 730 mmHg 87%
    03:00 +9°C° 0 mm 1 mps 729 mmHg 88%
    04:00 +9°C° 0 mm 1 mps 729 mmHg 87%
    05:00 +8°C° 0 mm 1 mps 729 mmHg 86%
    06:00 +8°C° 0 mm 1 mps 729 mmHg 85%
    07:00 +10°C° 0 mm 1 mps 729 mmHg 81%
    08:00 +11°C° 0 mm 1 mps 729 mmHg 77%
    09:00 +13°C° 0 mm 1 mps 729 mmHg 73%
    10:00 +14°C° 0 mm 2 mps 729 mmHg 70%
    11:00 +15°C° 0 mm 2 mps 728 mmHg 67%
    12:00 +16°C° 0 mm 3 mps 728 mmHg 64%
    13:00 +17°C° 0 mm 3 mps 727 mmHg 62%
    14:00 +17°C° 0 mm 3 mps 727 mmHg 61%
    15:00 +18°C° 0 mm 3 mps 727 mmHg 60%
    16:00 +17°C° 0 mm 2 mps 726 mmHg 64%
    17:00 +16°C° 0 mm 2 mps 726 mmHg 67%
    18:00 +16°C° 0 mm 1 mps 726 mmHg 71%
    19:00 +15°C° 0 mm 1 mps 726 mmHg 72%
    20:00 +14°C° 0 mm 1 mps 727 mmHg 74%
    21:00 +13°C° 0 mm 1 mps 727 mmHg 76%
    22:00 +13°C° 0 mm 1 mps 727 mmHg 75%
    23:00 +13°C° 0 mm 1 mps 726 mmHg 74%

    6 April, Monday

    Time Temperature Precipitation Wind Pressure Humidity
    00:00 +13°C° 0 mm 1 mps 726 mmHg 74%
    01:00 +13°C° 0 mm 1 mps 726 mmHg 74%
    02:00 +13°C° 0 mm 1 mps 726 mmHg 75%
    03:00 +13°C° 0 mm 1 mps 726 mmHg 75%
    04:00 +13°C° 0.1 mm 1 mps 726 mmHg 76%
    05:00 +13°C° 0.1 mm 1 mps 726 mmHg 77%
    06:00 +13°C° 0.1 mm 1 mps 727 mmHg 78%
    07:00 +13°C° 0.1 mm 1 mps 727 mmHg 79%
    08:00 +13°C° 0.1 mm 1 mps 727 mmHg 80%
    09:00 +13°C° 0.1 mm 1 mps 727 mmHg 81%
    10:00 +13°C° 0 mm 1 mps 727 mmHg 78%
    11:00 +13°C° 0 mm 1 mps 727 mmHg 76%
    12:00 +14°C° 0 mm 1 mps 727 mmHg 73%
    13:00 +14°C° 0 mm 2 mps 727 mmHg 73%
    14:00 +14°C° 0 mm 2 mps 727 mmHg 74%
    15:00 +13°C° 0 mm 3 mps 727 mmHg 75%
    16:00 +13°C° 0.1 mm 3 mps 727 mmHg 79%
    17:00 +12°C° 0.1 mm 3 mps 727 mmHg 82%
    18:00 +12°C° 0.1 mm 4 mps 728 mmHg 86%
    19:00 +11°C° 0 mm 3 mps 728 mmHg 85%
    20:00 +10°C° 0 mm 3 mps 729 mmHg 84%
    21:00 +10°C° 0 mm 3 mps 729 mmHg 83%
    22:00 +9°C° 0 mm 3 mps 730 mmHg 84%
    23:00 +7°C° 0 mm 4 mps 730 mmHg 84%

    7 April, Tuesday

    Time Temperature Precipitation Wind Pressure Humidity
    00:00 +6°C° 0 mm 5 mps 730 mmHg 84%
    01:00 +6°C° 0.1 mm 5 mps 730 mmHg 86%
    02:00 +5°C° 0.1 mm 5 mps 730 mmHg 88%
    03:00 +3°C° 0.1 mm 6 mps 730 mmHg 90%
    04:00 +3°C° 0.2 mm 5 mps 731 mmHg 89%
    05:00 +3°C° 0.2 mm 5 mps 731 mmHg 89%
    06:00 +2°C° 0.2 mm 5 mps 732 mmHg 88%
    07:00 +3°C° 0.1 mm 5 mps 732 mmHg 88%
    08:00 +3°C° 0.1 mm 5 mps 732 mmHg 87%
    09:00 +3°C° 0.1 mm 5 mps 732 mmHg 86%
    10:00 +3°C° 0.1 mm 5 mps 732 mmHg 85%
    11:00 +3°C° 0.1 mm 5 mps 732 mmHg 83%
    12:00 +3°C° 0.1 mm 5 mps 732 mmHg 81%
    13:00 +5°C° 0.1 mm 4 mps 732 mmHg 80%
    14:00 +5°C° 0.1 mm 4 mps 732 mmHg 78%
    15:00 +5°C° 0.1 mm 4 mps 732 mmHg 76%
    16:00 +5°C° 0.1 mm 4 mps 732 mmHg 77%
    17:00 +5°C° 0.1 mm 3 mps 732 mmHg 78%
    18:00 +5°C° 0.1 mm 3 mps 732 mmHg 79%
    19:00 +4°C° 0.1 mm 3 mps 732 mmHg 82%
    20:00 +5°C° 0.1 mm 2 mps 732 mmHg 84%
    21:00 +4°C° 0.1 mm 2 mps 733 mmHg 87%
    22:00 +4°C° 0 mm 2 mps 733 mmHg 88%
    23:00 +4°C° 0 mm 2 mps 733 mmHg 89%

    8 April, Wednesday

    Time Temperature Precipitation Wind Pressure Humidity
    00:00 +4°C° 0 mm 2 mps 733 mmHg 90%
    01:00 +4°C° 0.1 mm 2 mps 733 mmHg 90%
    02:00 +4°C° 0.1 mm 2 mps 732 mmHg 90%
    03:00 +4°C° 0.1 mm 2 mps 732 mmHg 90%
    04:00 +3°C° 0.1 mm 2 mps 732 mmHg 91%
    05:00 +3°C° 0.1 mm 2 mps 732 mmHg 91%
    06:00 +4°C° 0.1 mm 1 mps 732 mmHg 92%
    07:00 +4°C° 0 mm 2 mps 732 mmHg 89%
    08:00 +4°C° 0 mm 2 mps 731 mmHg 86%
    09:00 +5°C° 0 mm 2 mps 731 mmHg 82%
    10:00 +6°C° 0 mm 2 mps 730 mmHg 79%
    11:00 +6°C° 0 mm 2 mps 730 mmHg 76%
    12:00 +7°C° 0 mm 2 mps 729 mmHg 72%
    13:00 +8°C° 0 mm 2 mps 729 mmHg 71%
    14:00 +8°C° 0 mm 2 mps 728 mmHg 69%
    15:00 +8°C° 0 mm 2 mps 727 mmHg 67%
    16:00 +8°C° 0 mm 2 mps 727 mmHg 68%
    17:00 +8°C° 0 mm 2 mps 727 mmHg 69%
    18:00 +8°C° 0 mm 2 mps 727 mmHg 69%
    19:00 +9°C° 0 mm 1 mps 727 mmHg 71%
    20:00 +8°C° 0 mm 1 mps 727 mmHg 72%
    21:00 +8°C° 0 mm 1 mps 727 mmHg 73%
    22:00 +8°C° 0 mm 1 mps 727 mmHg 74%
    23:00 +7°C° 0 mm 0 mps 726 mmHg 75%
    Show more